LEMUR-2-SCHMIDTFALL (46315 NORAD) Tracking and Keplerian Element Data

This shows tracking and keplerian element data for the satellite.

Feedback or suggestion? Click here.




ElementValue
Catalog46315
NameLEMUR-2-SCHMIDTFALL
Epoch Orbit2203
Epoch Day27.1524948
Epoch Year2021
RAAN103.6994
Inclination97.5055
Eccentricity0.0003797
Argument of Perigee109.8964
Mean Anonmoly250.2676
Mean Motion15.11492013
Decay Rate2.901E-05
L11 46315U 20061AV 21027.15249480 .00002901 00000-0 17513-3 0 9995
L22 46315 97.5055 103.6994 0003797 109.8964 250.2676 15.11492013 22039

Live tracking and technical data element details for LEMUR-2-SCHMIDTFALL (NORAD 46315). LEMUR-2-SCHMIDTFALL can be tracked NOW for your location showing map with azimuth and elevation plus other details from your city location.

Track the satellite on the map from your city or location and see movement details for azimuth, elevation, latitude, longitude, range, height, and movement on the map or in text.







IsCatalogInMostPopularTable: catalog: 46315, numindb: 38
Update: records affected: 1



GetName: 46315 LEMUR-2-SCHMIDTFALL

Hit Count: updated at: Thu, 28 Jan 2021 10:42:01 GMT